Tracking 25710 objects as of 6-Jul-2022
HD Live streaming from Space Station
objects crossing your sky now

ATLAS 5 CENTAUR DEB

Track ATLAS 5 CENTAUR DEB now!


NORAD ID: 43957
Int'l Code: 2014-055L
Perigee: 7,836.8 km
Apogee: 34,494.8 km
Inclination: 21.7 °
Period: 757.9 minutes
Semi major axis: 27536 km
RCS: Unknown
Launch date: September 17, 2014
Source: United States (US)
Launch site: AIR FORCE EASTERN TEST RANGE (AFETR)

Note: This is SATELLITE DEBRIS
aabbcc
Your satellite tracking list
Your tracking list is empty




NASA's NSSDC Master Catalog

Two Line Element Set (TLE):
1 43957U 14055L   22182.27253264 -.00000086  00000-0  00000-0 0  9994
2 43957  21.7011 283.8546 4840428 287.9218  26.5480  1.89990844 26594
Source of the keplerian elements: AFSPC